Simultaneous Nadir Overpasses (SNOs) Predictions

Prediction of SNOs between GOES-17 and METOP-A Satellite Orbit:

Table of predicted SNOs for the next 14.0 days since TLE Epoch: 8/7/2020
Index Date Time (GOES-17) GOES-17 Lat,Lon METOP-A Lat,Lon Distance(km) Time Diff (sec)
1 08/08/2020 05:32:34 0.00,-137.16 0.70,-133.87 373.80 80
2 08/09/2020 17:51:26 -0.00,-137.17 0.29,-138.47 148.49 80
3 08/10/2020 17:28:05 -0.00,-137.16 -0.78,-133.48 418.59 80
4 08/12/2020 05:47:05 -0.00,-137.14 -0.23,-138.11 110.92 80
5 08/13/2020 05:29:06 0.00,-137.13 0.91,-133.14 455.64 80
6 08/14/2020 17:45:16 -0.00,-137.13 0.14,-137.72 68.21 80
7 08/15/2020 17:27:16 -0.00,-137.11 -0.94,-132.74 497.78 80
8 08/17/2020 05:43:36 0.00,-137.08 -0.07,-137.37 33.37 80
9 08/19/2020 17:44:27 -0.00,-137.04 -0.02,-136.98 7.14 80
